Location: Boissi�res
(45.2500°N, 2.3667°E)
Time: 06:20:21
(UTC+00:00)

PSLV R/B - Pass Details

Date: 03 March 2021
Orbit: 567 x 598 km, 98.2° (Epoch: 19 April)

Event Time Altitude Azimuth Distance (km) Brightness Sun altitude
Rises 18:33:01 0° 14° (NNE) 2,807 7.3 -10.0°
Reaches altitude 10° 18:35:11 10° 15° (NNE) 1,898 6.4 -10.4°
Maximum altitude 18:39:18 81° 103° (ESE) 586 3.8 -11.1°
Drops below altitude 10° 18:43:20 10° 191° (SSW) 1,867 6.6 -11.8°
Sets 18:45:28 0° 193° (SSW) 2,756 7.5 -12.2°
